Meriden, CT

1:20 PM EDT on April 24, 2017 (GMT -0400)
Meriden Markham Municipal

Weather History for KMMK - March, 2013

Change the Weather History Date:

Sunday, March 24, 2013

  Actual Average (KOXC) Record (KOXC)
Temperature  
Mean Temperature 35 °F -  
Max Temperature 48 °F 45 °F 59 °F (2012)
Min Temperature 24 °F 29 °F 15 °F (1997)
Degree Days  
Heating Degree Days 30    
Moisture  
Dew Point 20 °F    
Average Humidity 51    
Maximum Humidity 81    
Minimum Humidity 34    
Precipitation  
Precipitation 0.00 in - - ()
Sea Level Pressure  
Sea Level Pressure 29.82 in    
Wind  
Wind Speed 5 mph (North)    
Max Wind Speed 15 mph    
Max Gust Speed 22 mph    
Visibility 10 miles    
Events      
Averages and records for this station are not official NWS values.
T = Trace of Precipitation, MM = Missing Value Source: NWS Daily Summary

Daily Weather History Graph

Daily Weather History Graph

Search for Another Location

Airport or City:

Trip Planner

Search our weather history database for the weather conditions in past years. The results will help you decide how hot, cold, wet, or windy it might be!

Date:

Astronomy

Mar. 24, 2013 Rise Set
Actual Time 6:47 AM EDT 7:08 PM EDT
Civil Twilight 6:19 AM EDT 7:35 PM EDT
Nautical Twilight 5:47 AM EDT 8:08 PM EDT
Astronomical Twilight 5:13 AM EDT 8:41 PM EDT
Moon 4:32 PM EDT 4:58 AM EDT
Length of Visible Light 13h 16m
Length of Day
12h 20m
Waxing Gibbous, 91% of the Moon is Illuminated
Mar 24
Waxing Gibbous
Mar 27
Full
Apr 3
Last Quarter
Apr 10
New
Apr 18
First Quarter

Hourly Weather History & Observations

Time (EDT) Temp. Windchill Dew Point Humidity Pressure Visibility Wind Dir Wind Speed Gust Speed Precip Events Conditions
12:53 AM 34.0 °F 29.8 °F 16.0 °F 48% 29.89 in 10.0 mi NW 4.6 mph - N/A   Clear
1:53 AM 32.0 °F 27.5 °F 17.1 °F 54% 29.89 in 10.0 mi NNW 4.6 mph - N/A   Clear
2:53 AM 30.0 °F - 19.0 °F 64% 29.88 in 10.0 mi Calm Calm - N/A   Clear
3:53 AM 32.0 °F 27.5 °F 19.0 °F 59% 29.85 in 10.0 mi NW 4.6 mph - N/A   Clear
4:53 AM 28.0 °F - 19.9 °F 72% 29.87 in 10.0 mi Calm Calm - N/A   Clear
5:53 AM 26.1 °F 21.9 °F 19.9 °F 78% 29.88 in 10.0 mi NE 3.5 mph - N/A   Clear
6:53 AM 24.1 °F - 19.0 °F 81% 29.90 in 10.0 mi Calm Calm - N/A   Clear
7:53 AM 28.9 °F - 23.0 °F 78% 29.90 in 10.0 mi Calm Calm - N/A   Clear
8:53 AM 35.1 °F 31.0 °F 19.9 °F 54% 29.92 in 10.0 mi NW 4.6 mph - N/A   Clear
9:53 AM 39.0 °F 31.8 °F 19.0 °F 45% 29.91 in 10.0 mi NW 11.5 mph - N/A   Mostly Cloudy
10:53 AM 41.0 °F 35.8 °F 19.0 °F 41% 29.88 in 10.0 mi NW 8.1 mph 17.3 mph N/A   Scattered Clouds
11:53 AM 43.0 °F 35.7 °F 19.9 °F 40% 29.86 in 10.0 mi NNW 15.0 mph 20.7 mph N/A   Partly Cloudy
12:53 PM 43.0 °F 37.7 °F 19.9 °F 40% 29.82 in 10.0 mi North 9.2 mph 18.4 mph N/A   Clear
1:53 PM 45.0 °F 40.1 °F 21.0 °F 39% 29.81 in 10.0 mi North 9.2 mph 21.9 mph N/A   Clear
2:53 PM 46.0 °F 41.4 °F 21.0 °F 37% 29.78 in 10.0 mi North 9.2 mph - N/A   Clear
3:53 PM 46.9 °F - 21.0 °F 36% 29.74 in 10.0 mi North 11.5 mph 16.1 mph N/A   Clear
4:53 PM 46.9 °F - 19.9 °F 34% 29.73 in 10.0 mi North 12.7 mph - N/A   Clear
5:53 PM 46.0 °F 41.4 °F 21.0 °F 37% 29.72 in 10.0 mi North 9.2 mph - N/A   Clear
6:53 PM 44.1 °F 40.8 °F 21.0 °F 40% 29.73 in 10.0 mi NNE 5.8 mph - N/A   Clear
7:53 PM 43.0 °F 41.3 °F 21.9 °F 43% 29.73 in 10.0 mi NNW 3.5 mph - N/A   Clear
8:53 PM 42.1 °F 40.2 °F 21.9 °F 45% 29.77 in 10.0 mi North 3.5 mph - N/A   Clear
9:53 PM 41.0 °F 36.4 °F 21.9 °F 47% 29.76 in 10.0 mi NNE 6.9 mph - N/A   Partly Cloudy
10:53 PM 41.0 °F 35.8 °F 21.9 °F 47% 29.76 in 10.0 mi NNE 8.1 mph - N/A   Clear
11:53 PM 39.0 °F 36.8 °F 25.0 °F 57% 29.76 in 10.0 mi East 3.5 mph - N/A   Clear